Tracking 29489 objects as of 9-Sep-2024
HD Live streaming from Space Station
objects crossing your sky now

FENGYUN 1C DEB

Track FENGYUN 1C DEB now!
10-day predictions


NORAD ID: 31041
Int'l Code: 1999-025BEK
Perigee: 793.8 km
Apogee: 933.4 km
Inclination: 99.2 °
Period: 102.1 minutes
Semi major axis: 7234 km
RCS: 0.0058 m2 (small)
Launch date: May 10, 1999
Source: People's Republic of China (PRC)
Launch site: Taiyaun Space Center, China (TSC)

Note: This is SATELLITE DEBRIS
Your satellite tracking list
Your tracking list is empty




NASA's NSSDC Master Catalog

Two Line Element Set (TLE):
1 31041U 99025BEK 24252.47569844  .00011628  00000-0  62286-2 0  9990
2 31041  99.2297 259.8715 0096495 174.9916 185.2242 14.10846464889801
Source of the keplerian elements: AFSPC